Powrót do katalogu

STARLINK-11361

AktywnyŁącznośćVLEO
NORAD 61585·PAYLOAD·🇺🇸 United States

Wystrzelony Oct 18, 2024 z Cape Canaveral Space Force Station

Loading…

Następne Przeloty (najbliższe 24 godziny)

TLE

ŚwieżeSource: CelesTrak SupGP

Epoka: Sep 15, 2026, 02:21 UTC

1 61585C 24187M   26258.09840278  .00037368  00000+0  30764-3 0  2585
2 61585  53.1568  82.6691 0001038  85.2677  45.4443 15.69704633    13

Śledź STARLINK-11361 w czasie rzeczywistym z AllMySat

Download on the App Store